When you browse on this site, cookies collect data to enhance your experience and personalize the content and advertising you see.
Visit our Privacy Policy to learn more. By continuing to use the site, you agree to this use of cookies and data.
  • En España
  • Lista de países
  • Para 7 días
  • Temperatura del agua
  • El tiempo en el mapa
  • Informadores
  • user-avatar
    Iniciar sesión

    Tiempo cada hora Granada

    Hoy, 20 Febrero, Jueves

    Tiempo Temperatura Precipitaciones Viento Presión Humedad
    00:00 +9°C° 0 mm 1 mps 707 mmHg 79%
    01:00 +9°C° 0 mm 1 mps 707 mmHg 78%
    02:00 +8°C° 0 mm 1 mps 706 mmHg 77%
    03:00 +8°C° 0 mm 1 mps 706 mmHg 76%
    04:00 +8°C° 0 mm 1 mps 705 mmHg 73%
    05:00 +8°C° 0 mm 1 mps 705 mmHg 71%
    06:00 +8°C° 0 mm 1 mps 705 mmHg 68%
    07:00 +9°C° 0 mm 1 mps 705 mmHg 63%
    08:00 +11°C° 0 mm 1 mps 705 mmHg 57%
    09:00 +13°C° 0 mm 1 mps 706 mmHg 52%
    10:00 +14°C° 0 mm 1 mps 706 mmHg 50%
    11:00 +15°C° 0 mm 1 mps 706 mmHg 49%
    12:00 +18°C° 0 mm 1 mps 706 mmHg 47%
    13:00 +18°C° 0 mm 1 mps 705 mmHg 48%
    14:00 +18°C° 0 mm 1 mps 705 mmHg 49%
    15:00 +19°C° 0 mm 1 mps 705 mmHg 50%
    16:00 +16°C° 0 mm 1 mps 705 mmHg 55%
    17:00 +15°C° 0 mm 1 mps 704 mmHg 61%
    18:00 +13°C° 0 mm 0 mps 704 mmHg 67%
    19:00 +13°C° 0 mm 1 mps 705 mmHg 67%
    20:00 +13°C° 0 mm 1 mps 705 mmHg 67%
    21:00 +12°C° 0 mm 1 mps 705 mmHg 67%
    22:00 +12°C° 0 mm 1 mps 706 mmHg 69%
    23:00 +11°C° 0 mm 1 mps 706 mmHg 71%

    Mañana, 21 Febrero, Viernes

    Tiempo Temperatura Precipitaciones Viento Presión Humedad
    00:00 +11°C° 0 mm 1 mps 706 mmHg 72%
    01:00 +11°C° 0 mm 1 mps 706 mmHg 73%
    02:00 +10°C° 0 mm 1 mps 706 mmHg 74%
    03:00 +10°C° 0 mm 1 mps 705 mmHg 75%
    04:00 +10°C° 0 mm 1 mps 706 mmHg 75%
    05:00 +10°C° 0 mm 1 mps 706 mmHg 75%
    06:00 +10°C° 0 mm 1 mps 706 mmHg 75%
    13:00 +18°C° 0 mm 2 mps 709 mmHg 48%
    14:00 +18°C° 0 mm 2 mps 708 mmHg 48%
    15:00 +18°C° 0 mm 2 mps 708 mmHg 47%
    16:00 +16°C° 0 mm 2 mps 708 mmHg 52%
    17:00 +15°C° 0 mm 1 mps 708 mmHg 58%
    18:00 +13°C° 0 mm 1 mps 708 mmHg 63%
    19:00 +12°C° 0 mm 1 mps 708 mmHg 64%
    20:00 +12°C° 0 mm 1 mps 708 mmHg 64%
    21:00 +11°C° 0 mm 1 mps 708 mmHg 65%
    22:00 +11°C° 0 mm 1 mps 709 mmHg 65%
    23:00 +10°C° 0 mm 1 mps 709 mmHg 66%

    Pasado mañana, 22 Febrero, Sábado

    Tiempo Temperatura Precipitaciones Viento Presión Humedad
    00:00 +9°C° 0 mm 0 mps 709 mmHg 66%
    01:00 +8°C° 0 mm 0 mps 709 mmHg 65%
    02:00 +8°C° 0 mm 0 mps 709 mmHg 64%
    03:00 +9°C° 0 mm 1 mps 708 mmHg 62%
    04:00 +9°C° 0 mm 1 mps 709 mmHg 60%
    05:00 +9°C° 0 mm 1 mps 709 mmHg 58%
    06:00 +8°C° 0 mm 1 mps 709 mmHg 56%
    07:00 +10°C° 0 mm 1 mps 709 mmHg 52%
    08:00 +12°C° 0 mm 1 mps 710 mmHg 47%
    09:00 +14°C° 0 mm 1 mps 710 mmHg 43%
    10:00 +15°C° 0 mm 1 mps 710 mmHg 40%
    11:00 +16°C° 0 mm 1 mps 711 mmHg 37%
    12:00 +19°C° 0 mm 1 mps 711 mmHg 34%
    13:00 +20°C° 0 mm 1 mps 710 mmHg 33%
    14:00 +20°C° 0 mm 1 mps 710 mmHg 32%
    15:00 +21°C° 0 mm 1 mps 710 mmHg 31%
    16:00 +19°C° 0 mm 1 mps 710 mmHg 37%
    17:00 +16°C° 0 mm 1 mps 709 mmHg 44%
    18:00 +14°C° 0 mm 1 mps 709 mmHg 50%
    19:00 +13°C° 0 mm 1 mps 710 mmHg 49%
    20:00 +13°C° 0 mm 1 mps 710 mmHg 48%
    21:00 +12°C° 0 mm 1 mps 710 mmHg 47%
    22:00 +11°C° 0 mm 1 mps 710 mmHg 46%
    23:00 +11°C° 0 mm 1 mps 710 mmHg 46%

    23 Febrero, Domingo

    Tiempo Temperatura Precipitaciones Viento Presión Humedad
    00:00 +10°C° 0 mm 1 mps 710 mmHg 45%
    01:00 +10°C° 0 mm 1 mps 710 mmHg 43%
    02:00 +10°C° 0 mm 1 mps 710 mmHg 41%
    03:00 +9°C° 0 mm 1 mps 709 mmHg 39%
    04:00 +9°C° 0 mm 1 mps 709 mmHg 38%
    05:00 +9°C° 0 mm 1 mps 709 mmHg 37%
    06:00 +9°C° 0 mm 1 mps 709 mmHg 36%
    07:00 +10°C° 0 mm 1 mps 710 mmHg 34%
    08:00 +12°C° 0 mm 1 mps 710 mmHg 32%
    09:00 +14°C° 0 mm 1 mps 711 mmHg 30%
    10:00 +16°C° 0 mm 1 mps 711 mmHg 28%
    11:00 +18°C° 0 mm 1 mps 711 mmHg 26%
    12:00 +20°C° 0 mm 1 mps 711 mmHg 24%
    13:00 +20°C° 0 mm 1 mps 711 mmHg 24%
    14:00 +20°C° 0 mm 1 mps 710 mmHg 25%
    15:00 +21°C° 0 mm 1 mps 710 mmHg 26%
    16:00 +19°C° 0 mm 1 mps 710 mmHg 34%
    17:00 +16°C° 0 mm 1 mps 709 mmHg 41%
    18:00 +14°C° 0 mm 1 mps 709 mmHg 48%
    19:00 +13°C° 0 mm 1 mps 709 mmHg 48%
    20:00 +13°C° 0 mm 1 mps 709 mmHg 47%
    21:00 +12°C° 0 mm 1 mps 709 mmHg 47%
    22:00 +12°C° 0 mm 1 mps 709 mmHg 47%
    23:00 +11°C° 0 mm 1 mps 709 mmHg 46%

    24 Febrero, Lunes

    Tiempo Temperatura Precipitaciones Viento Presión Humedad
    00:00 +11°C° 0 mm 1 mps 709 mmHg 46%
    01:00 +10°C° 0 mm 0 mps 709 mmHg 45%
    02:00 +9°C° 0 mm 0 mps 709 mmHg 45%
    03:00 +9°C° 0 mm 0 mps 708 mmHg 44%
    04:00 +9°C° 0 mm 0 mps 708 mmHg 45%
    05:00 +9°C° 0 mm 0 mps 708 mmHg 45%
    06:00 +8°C° 0 mm 0 mps 708 mmHg 45%
    07:00 +10°C° 0 mm 0 mps 708 mmHg 41%
    08:00 +12°C° 0 mm 0 mps 709 mmHg 38%
    09:00 +14°C° 0 mm 0 mps 709 mmHg 34%
    10:00 +18°C° 0 mm 1 mps 709 mmHg 33%
    11:00 +19°C° 0 mm 1 mps 709 mmHg 31%
    12:00 +20°C° 0 mm 1 mps 709 mmHg 30%
    13:00 +20°C° 0 mm 1 mps 709 mmHg 30%
    14:00 +21°C° 0 mm 1 mps 708 mmHg 30%
    15:00 +21°C° 0 mm 1 mps 708 mmHg 30%
    16:00 +19°C° 0 mm 1 mps 707 mmHg 37%
    17:00 +16°C° 0 mm 1 mps 707 mmHg 44%
    18:00 +14°C° 0 mm 1 mps 707 mmHg 51%
    19:00 +14°C° 0 mm 1 mps 707 mmHg 51%
    20:00 +13°C° 0 mm 1 mps 707 mmHg 52%
    21:00 +12°C° 0 mm 1 mps 707 mmHg 52%
    22:00 +12°C° 0 mm 1 mps 707 mmHg 52%
    23:00 +11°C° 0 mm 1 mps 707 mmHg 52%

    25 Febrero, Martes

    Tiempo Temperatura Precipitaciones Viento Presión Humedad
    00:00 +10°C° 0 mm 0 mps 707 mmHg 52%
    01:00 +10°C° 0 mm 0 mps 706 mmHg 52%
    02:00 +10°C° 0 mm 1 mps 706 mmHg 52%
    03:00 +10°C° 0 mm 1 mps 706 mmHg 53%
    04:00 +10°C° 0 mm 1 mps 706 mmHg 53%
    05:00 +10°C° 0 mm 1 mps 705 mmHg 54%
    06:00 +9°C° 0 mm 1 mps 705 mmHg 54%
    07:00 +11°C° 0 mm 1 mps 706 mmHg 51%
    08:00 +13°C° 0 mm 1 mps 706 mmHg 47%
    09:00 +14°C° 0 mm 1 mps 707 mmHg 43%
    10:00 +16°C° 0 mm 1 mps 707 mmHg 40%
    11:00 +17°C° 0 mm 2 mps 707 mmHg 38%
    12:00 +18°C° 0 mm 2 mps 707 mmHg 35%
    13:00 +18°C° 0 mm 3 mps 706 mmHg 34%
    14:00 +19°C° 0 mm 3 mps 706 mmHg 34%
    15:00 +19°C° 0 mm 3 mps 705 mmHg 33%
    16:00 +17°C° 0 mm 3 mps 705 mmHg 41%
    17:00 +16°C° 0 mm 3 mps 705 mmHg 48%
    18:00 +14°C° 0 mm 2 mps 704 mmHg 55%
    19:00 +13°C° 0 mm 2 mps 705 mmHg 57%
    20:00 +13°C° 0 mm 2 mps 705 mmHg 59%
    21:00 +12°C° 0 mm 2 mps 705 mmHg 61%
    22:00 +10°C° 0 mm 2 mps 705 mmHg 62%
    23:00 +11°C° 0 mm 1 mps 704 mmHg 63%
    Mostrar más